Klawock, AK

2:23 PM AKST on February 23, 2018 (GMT -0900)
Klawock

Weather History for PAKW - January, 2013

Change the Weather History Date:

Tuesday, January 8, 2013

  Actual Average Record
Temperature  
Mean Temperature 34 °F -  
Max Temperature 37 °F 36 °F 48 °F (2016)
Min Temperature 30 °F 28 °F 12 °F (2009)
Degree Days  
Heating Degree Days 32    
Moisture  
Dew Point 32 °F    
Average Humidity 92    
Maximum Humidity 100    
Minimum Humidity 86    
Precipitation  
Precipitation 0.13 in - - ()
Sea Level Pressure  
Sea Level Pressure 29.71 in    
Wind  
Wind Speed 3 mph (NNE)    
Max Wind Speed 8 mph    
Max Gust Speed -    
Visibility 9 miles    
Events Rain , Snow    
Averages and records for this station are not official NWS values.
T = Trace of Precipitation, MM = Missing Value Source: NWS Daily Summary

Daily Weather History Graph

Daily Weather History Graph

Search for Another Location

Airport or City:

Trip Planner

Search our weather history database for the weather conditions in past years. The results will help you decide how hot, cold, wet, or windy it might be!

Date:

Astronomy

Jan. 08, 2013 Rise Set
Actual Time 8:17 AM AKST 3:41 PM AKST
Civil Twilight 7:32 AM AKST 4:26 PM AKST
Nautical Twilight 6:44 AM AKST 5:14 PM AKST
Astronomical Twilight 6:00 AM AKST 5:58 PM AKST
Moon 4:55 AM AKST (1/8) 12:51 PM AKST (1/8)
Length of Visible Light 8h 54m
Length of Day
7h 24m
Waning Crescent, 12% of the Moon is Illuminated
Jan 8
Waning Crescent
Jan 11
New
Jan 18
First Quarter
Jan 26
Full
Feb 3
Last Quarter

Hourly Weather History & Observations

Time (AKST) Temp. Windchill Dew Point Humidity Pressure Visibility Wind Dir Wind Speed Gust Speed Precip Events Conditions
12:53 AM 36.0 °F 32.1 °F 33.1 °F 89% 29.78 in 10.0 mi Variable 4.6 mph - 0.01 in   Mostly Cloudy
1:53 AM 36.0 °F 31.1 °F 33.1 °F 89% 29.80 in 10.0 mi Variable 5.8 mph - N/A   Overcast
2:13 AM 35.6 °F 31.7 °F 33.8 °F 93% 29.80 in 7.0 mi Variable 4.6 mph - 0.00 in Rain Light Rain
2:24 AM 35.6 °F 32.8 °F 33.8 °F 93% 29.80 in 10.0 mi Variable 3.5 mph - 0.00 in Rain Light Rain
2:51 AM 35.1 °F 32.2 °F 32.0 °F 89% 29.81 in 3.0 mi Variable 3.5 mph - 0.02 in Snow Light Snow
3:06 AM 35.6 °F - 33.8 °F 93% 29.79 in 6.0 mi Calm Calm - 0.02 in Rain Light Rain
3:23 AM 33.8 °F - 32.0 °F 93% 29.79 in 10.0 mi Calm Calm - 0.02 in   Scattered Clouds
3:53 AM 33.1 °F - 32.0 °F 96% 29.78 in 10.0 mi Calm Calm - 0.02 in   Scattered Clouds
4:53 AM 34.0 °F - 32.0 °F 92% 29.78 in 10.0 mi Calm Calm - 0.00 in   Overcast
5:53 AM 33.1 °F - 32.0 °F 96% 29.77 in 8.0 mi Calm Calm - 0.00 in Rain Light Rain
6:29 AM 33.8 °F - 32.0 °F 93% 29.76 in 5.0 mi Calm Calm - 0.00 in Rain Light Rain
6:39 AM 33.8 °F - 32.0 °F 93% 29.75 in 10.0 mi Calm Calm - 0.00 in   Mostly Cloudy
6:46 AM 33.8 °F - 32.0 °F 93% 29.75 in 10.0 mi Calm Calm - 0.00 in   Scattered Clouds
6:53 AM 34.0 °F - 32.0 °F 92% 29.76 in 10.0 mi Calm Calm - 0.00 in   Scattered Clouds
7:30 AM 33.8 °F 30.8 °F 33.8 °F 100% 29.76 in 3.0 mi Variable 3.5 mph - 0.00 in Snow Light Snow
7:32 AM 33.8 °F - 32.0 °F 93% 29.75 in 2.5 mi Calm Calm - 0.00 in Snow Light Snow
7:41 AM 33.8 °F 29.6 °F 32.0 °F 93% 29.75 in 7.0 mi North 4.6 mph - 0.00 in Rain Light Rain
7:50 AM 33.8 °F - 32.0 °F 93% 29.75 in 10.0 mi Calm Calm - 0.00 in   Scattered Clouds
7:53 AM 34.0 °F - 32.0 °F 92% 29.75 in 10.0 mi Calm Calm - 0.00 in   Scattered Clouds
8:53 AM 33.1 °F - 32.0 °F 96% 29.75 in 10.0 mi Calm Calm - N/A   Mostly Cloudy
9:53 AM 34.0 °F 29.8 °F 32.0 °F 92% 29.74 in 10.0 mi NNE 4.6 mph - N/A   Scattered Clouds
10:53 AM 34.0 °F 31.0 °F 32.0 °F 92% 29.73 in 10.0 mi Variable 3.5 mph - N/A   Overcast
11:53 AM 37.0 °F - 33.1 °F 86% 29.70 in 10.0 mi Calm Calm - 0.05 in   Scattered Clouds
12:53 PM 37.0 °F - 34.0 °F 89% 29.68 in 10.0 mi Calm Calm - 0.02 in   Clear
1:53 PM 35.1 °F 32.2 °F 32.0 °F 89% 29.66 in 10.0 mi Variable 3.5 mph - N/A   Partly Cloudy
2:53 PM 34.0 °F 28.8 °F 32.0 °F 92% 29.64 in 10.0 mi NE 5.8 mph - N/A   Clear
3:53 PM 34.0 °F 29.8 °F 30.9 °F 89% 29.62 in 10.0 mi NE 4.6 mph - N/A   Clear
4:53 PM 33.1 °F 30.0 °F 30.9 °F 92% 29.61 in 10.0 mi NE 3.5 mph - N/A   Clear
5:53 PM 32.0 °F 26.4 °F 30.0 °F 92% 29.59 in 10.0 mi NE 5.8 mph - 0.01 in   Clear
6:53 PM 30.9 °F - 28.9 °F 92% 29.60 in 10.0 mi Calm Calm - N/A   Clear
7:53 PM 30.9 °F - 28.9 °F 92% 29.60 in 10.0 mi Calm Calm - N/A   Clear
8:53 PM 30.9 °F - 30.0 °F 96% 29.60 in 10.0 mi Calm Calm - N/A   Clear
9:53 PM 32.0 °F 26.4 °F 30.0 °F 92% 29.60 in 10.0 mi NNW 5.8 mph - N/A   Clear
10:53 PM 30.9 °F 23.5 °F 28.9 °F 92% 29.60 in 10.0 mi NNE 8.1 mph - N/A   Clear
11:53 PM 32.0 °F 26.4 °F 28.9 °F 88% 29.62 in 10.0 mi NNE 5.8 mph - N/A   Partly Cloudy